Location: Unspecified
(0.0000°N, 0.0000°E)
Time: 05:58:12
(UTC+00:00)

X-37B - Pass Details

Date: 05 August 2020
Orbit: 379 x 395 km, 45.0° (Epoch: 12 August)

Event Time Altitude Azimuth Distance (km) Brightness Sun altitude
Rises 05:38:44 0° 329° (NNW) 2,271 4.3 -6.5°
Reaches altitude 10° 05:40:52 10° 337° (NNW) 1,418 3.4 -6.0°
Maximum altitude 05:43:54 39° 48° (NE) 599 2.2 -5.3°
Drops below altitude 10° 05:46:55 10° 119° (ESE) 1,421 4.2 -4.6°
Sets 05:49:04 0° 126° (SE) 2,277 5.1 -4.1°
